Jackson, MN

12:45 PM CST on December 08, 2019 (GMT -0600)
Jackson Municipal

Weather History for KMJQ - November, 2019

Change the Weather History Date:

Saturday, November 16, 2019

  Actual Average Record
Temperature  
Mean Temperature 40 °F -  
Max Temperature 46 °F 39 °F 71 °F (2001)
Min Temperature 33 °F 24 °F -4 °F (2014)
Degree Days  
Heating Degree Days 26    
Moisture  
Dew Point 29 °F    
Average Humidity 66    
Maximum Humidity 81    
Minimum Humidity 49    
Precipitation  
Precipitation 0.01 in - - ()
Sea Level Pressure  
Sea Level Pressure 30.03 in    
Wind  
Wind Speed 13 mph ()    
Max Wind Speed 25 mph    
Max Gust Speed 33 mph    
Visibility 9.9 miles    
Events Rain    
Averages and records for this station are not official NWS values.
T = Trace of Precipitation, MM = Missing Value Source: Averaged Metar Reports

Daily Weather History Graph

Daily Weather History Graph

Search for Another Location

Airport or City:

Astronomy

Nov. 16, 2019 Rise Set
Actual Time 7:15 AM CST 4:53 PM CST
Civil Twilight 6:44 AM CST 5:24 PM CST
Nautical Twilight 6:09 AM CST 5:59 PM CST
Astronomical Twilight 5:35 AM CST 6:33 PM CST
Moon 8:24 PM CST (11/16) 11:13 AM CST (11/16)
Length of Visible Light 10h 40m
Length of Day
9h 38m
Waning Gibbous, 82% of the Moon is Illuminated
Nov 16
Waning Gibbous
Nov 19
Last Quarter
Nov 26
New
Dec 4
First Quarter
Dec 11
Full

Hourly Weather History & Observations

Time (CST) Temp. Windchill Dew Point Humidity Pressure Visibility Wind Dir Wind Speed Gust Speed Precip Events Conditions
12:15 AM 37.4 °F 28.9 °F 30.2 °F 75% 30.19 in 10.0 mi South 13.8 mph 20.7 mph N/A   Scattered Clouds
12:35 AM 35.6 °F 27.1 °F 30.2 °F 81% 30.19 in 10.0 mi South 12.7 mph 17.3 mph N/A   Scattered Clouds
1:15 AM 35.6 °F 28.0 °F 30.2 °F 81% 30.17 in 10.0 mi South 10.4 mph - N/A   Scattered Clouds
1:35 AM 35.6 °F 27.5 °F 30.2 °F 81% 30.16 in 10.0 mi South 11.5 mph - N/A   Scattered Clouds
1:55 AM 35.6 °F 27.5 °F 28.4 °F 75% 30.16 in 10.0 mi South 11.5 mph - N/A   Scattered Clouds
1:56 AM 35.6 °F 27.5 °F 28.4 °F 75% 30.16 in 10.0 mi South 11.5 mph - N/A   Scattered Clouds
2:15 AM 35.6 °F 27.5 °F 28.4 °F 75% 30.16 in 10.0 mi South 11.5 mph - N/A   Scattered Clouds
2:16 AM 35.6 °F 27.5 °F 28.4 °F 75% 30.16 in 10.0 mi South 11.5 mph - N/A   Scattered Clouds
2:35 AM 33.8 °F 25.8 °F 28.4 °F 81% 30.15 in 10.0 mi South 10.4 mph - N/A   Scattered Clouds
2:55 AM 33.8 °F 25.3 °F 28.4 °F 81% 30.14 in 10.0 mi SSE 11.5 mph 16.1 mph N/A   Scattered Clouds
2:56 AM 33.8 °F 25.3 °F 28.4 °F 81% 30.14 in 10.0 mi SSE 11.5 mph 16.1 mph N/A   Scattered Clouds
3:15 AM 33.8 °F 25.3 °F 28.4 °F 81% 30.14 in 10.0 mi SSE 11.5 mph - N/A   Scattered Clouds
3:35 AM 33.8 °F 24.3 °F 28.4 °F 81% 30.13 in 10.0 mi SSE 13.8 mph - N/A   Scattered Clouds
3:36 AM 33.8 °F 24.3 °F 28.4 °F 81% 30.13 in 10.0 mi SSE 13.8 mph - N/A   Scattered Clouds
3:55 AM 33.8 °F 24.8 °F 28.4 °F 81% 30.13 in 10.0 mi South 12.7 mph - N/A   Clear
4:15 AM 33.8 °F 25.3 °F 28.4 °F 81% 30.12 in 10.0 mi South 11.5 mph - N/A   Clear
4:16 AM 33.8 °F 24.3 °F 28.4 °F 81% 30.12 in 10.0 mi South 13.8 mph 18.4 mph N/A   Clear
4:35 AM 33.8 °F 23.9 °F 28.4 °F 81% 30.12 in 10.0 mi SSE 15.0 mph - N/A   Clear
4:36 AM 33.8 °F 23.9 °F 28.4 °F 81% 30.12 in 10.0 mi SSE 15.0 mph 20.7 mph N/A   Clear
4:55 AM 33.8 °F 23.5 °F 28.4 °F 81% 30.11 in 10.0 mi SSE 16.1 mph - N/A   Clear
4:56 AM 33.8 °F 23.9 °F 28.4 °F 81% 30.11 in 10.0 mi SSE 15.0 mph 18.4 mph N/A   Clear
5:15 AM 33.8 °F 23.5 °F 28.4 °F 81% 30.12 in 10.0 mi SSE 16.1 mph - N/A   Clear
5:35 AM 33.8 °F 23.9 °F 28.4 °F 81% 30.12 in 10.0 mi South 15.0 mph 18.4 mph N/A   Clear
5:55 AM 33.8 °F 23.9 °F 28.4 °F 81% 30.11 in 10.0 mi SSE 15.0 mph 19.6 mph N/A   Clear
6:15 AM 33.8 °F 23.9 °F 28.4 °F 81% 30.10 in 10.0 mi SSE 15.0 mph 23.0 mph N/A   Clear
6:16 AM 33.8 °F 23.5 °F 28.4 °F 81% 30.10 in 10.0 mi SSE 16.1 mph 23.0 mph N/A   Clear
6:35 AM 35.6 °F 25.5 °F 28.4 °F 75% 30.10 in 10.0 mi South 17.3 mph - N/A   Clear
6:55 AM 35.6 °F 25.5 °F 26.6 °F 70% 30.10 in 10.0 mi South 17.3 mph 24.2 mph N/A   Clear
7:15 AM 35.6 °F 24.8 °F 26.6 °F 70% 30.10 in 10.0 mi South 19.6 mph 26.5 mph N/A   Clear
7:35 AM 35.6 °F 25.5 °F 26.6 °F 70% 30.10 in 10.0 mi SSE 17.3 mph 24.2 mph N/A   Clear
7:55 AM 35.6 °F 25.5 °F 26.6 °F 70% 30.10 in 10.0 mi SSE 17.3 mph 25.3 mph N/A   Clear
8:16 AM 35.6 °F 25.5 °F 26.6 °F 70% 30.10 in 10.0 mi South 17.3 mph 27.6 mph N/A   Clear
8:35 AM 35.6 °F 24.8 °F 26.6 °F 70% 30.10 in 10.0 mi South 19.6 mph 27.6 mph N/A   Clear
8:55 AM 35.6 °F 25.2 °F 26.6 °F 70% 30.10 in 10.0 mi South 18.4 mph 24.2 mph N/A   Clear
9:15 AM 37.4 °F 26.6 °F 26.6 °F 65% 30.09 in 10.0 mi South 21.9 mph 28.8 mph N/A   Clear
9:16 AM 37.4 °F 26.6 °F 26.6 °F 65% 30.09 in 10.0 mi South 21.9 mph 28.8 mph N/A   Clear
9:35 AM 37.4 °F 27.5 °F 24.8 °F 60% 30.08 in 10.0 mi South 18.4 mph 27.6 mph N/A   Clear
9:55 AM 37.4 °F 27.8 °F 26.6 °F 65% 30.07 in 10.0 mi South 17.3 mph 26.5 mph N/A   Clear
10:35 AM 41.0 °F 31.4 °F 26.6 °F 57% 30.05 in 10.0 mi South 21.9 mph 26.5 mph N/A   Clear
10:55 AM 42.8 °F 34.3 °F 26.6 °F 53% 30.04 in 10.0 mi South 19.6 mph 26.5 mph N/A   Clear
11:15 AM 42.8 °F 34.5 °F 26.6 °F 53% 30.04 in 10.0 mi South 18.4 mph 28.8 mph N/A   Clear
11:16 AM 42.8 °F 34.5 °F 26.6 °F 53% 30.04 in 10.0 mi South 18.4 mph 28.8 mph N/A   Clear
11:35 AM 44.6 °F 35.9 °F 26.6 °F 49% 30.03 in 10.0 mi South 23.0 mph 28.8 mph N/A   Clear
11:36 AM 44.6 °F 35.9 °F 26.6 °F 49% 30.03 in 10.0 mi South 23.0 mph 28.8 mph N/A   Clear
11:55 AM 44.6 °F 36.6 °F 26.6 °F 49% 30.00 in 10.0 mi SSE 19.6 mph 27.6 mph N/A   Clear
12:15 PM 44.6 °F 36.1 °F 28.4 °F 53% 30.00 in 10.0 mi South 21.9 mph 28.8 mph N/A   Clear
12:16 PM 44.6 °F 35.5 °F 26.6 °F 49% 30.00 in 10.0 mi South 25.3 mph 29.9 mph N/A   Clear
12:35 PM 46.4 °F 38.1 °F 28.4 °F 50% 29.98 in 10.0 mi SSE 24.2 mph 32.2 mph N/A   Clear
12:55 PM 44.6 °F 36.6 °F 26.6 °F 49% 29.98 in 10.0 mi South 19.6 mph 33.4 mph N/A   Clear
1:15 PM 46.4 °F 38.7 °F 28.4 °F 50% 29.97 in 10.0 mi South 20.7 mph 32.2 mph N/A   Clear
1:16 PM 46.4 °F 38.5 °F 28.4 °F 50% 29.97 in 10.0 mi South 21.9 mph 29.9 mph N/A   Clear
1:35 PM 44.6 °F 35.7 °F 26.6 °F 49% 29.96 in 10.0 mi South 24.2 mph 33.4 mph N/A   Clear
1:55 PM 44.6 °F 36.6 °F 28.4 °F 53% 29.95 in 10.0 mi SSE 19.6 mph 29.9 mph N/A   Clear
2:15 PM 44.6 °F 36.4 °F 28.4 °F 53% 29.93 in 10.0 mi SSE 20.7 mph 27.6 mph N/A   Clear
2:35 PM 44.6 °F 36.6 °F 28.4 °F 53% 29.93 in 10.0 mi South 19.6 mph 26.5 mph N/A   Clear
2:55 PM 46.4 °F 39.5 °F 28.4 °F 50% 29.95 in 10.0 mi South 17.3 mph 21.9 mph N/A   Clear
2:56 PM 46.4 °F 39.8 °F 28.4 °F 50% 29.95 in 10.0 mi South 16.1 mph 21.9 mph N/A   Clear
3:15 PM 44.6 °F 37.2 °F 28.4 °F 53% 29.94 in 10.0 mi South 17.3 mph 21.9 mph N/A   Clear
3:35 PM 44.6 °F 37.4 °F 28.4 °F 53% 29.94 in 10.0 mi SSE 16.1 mph 23.0 mph N/A   Clear
3:36 PM 44.6 °F 37.8 °F 28.4 °F 53% 29.94 in 10.0 mi SSE 15.0 mph 23.0 mph N/A   Clear
3:55 PM 44.6 °F 38.4 °F 28.4 °F 53% 29.95 in 10.0 mi SSE 12.7 mph 20.7 mph N/A   Clear
4:15 PM 44.6 °F 38.1 °F 28.4 °F 53% 29.95 in 10.0 mi South 13.8 mph 21.9 mph N/A   Clear
4:35 PM 42.8 °F 36.2 °F 28.4 °F 57% 29.94 in 10.0 mi SSE 12.7 mph 16.1 mph N/A   Clear
4:36 PM 42.8 °F 35.8 °F 28.4 °F 57% 29.95 in 10.0 mi SSE 13.8 mph - N/A   Clear
4:55 PM 42.8 °F 35.4 °F 28.4 °F 57% 29.94 in 10.0 mi SSE 15.0 mph 18.4 mph N/A   Clear
4:56 PM 42.8 °F 35.8 °F 28.4 °F 57% 29.94 in 10.0 mi South 13.8 mph 19.6 mph N/A   Clear
5:15 PM 42.8 °F 36.2 °F 28.4 °F 57% 29.95 in 10.0 mi SSE 12.7 mph 18.4 mph N/A   Clear
5:35 PM 42.8 °F 36.6 °F 28.4 °F 57% 29.96 in 10.0 mi South 11.5 mph - N/A   Clear
5:55 PM 42.8 °F 38.0 °F 28.4 °F 57% 29.97 in 10.0 mi SSE 8.1 mph - N/A   Clear
5:56 PM 42.8 °F 38.6 °F 28.4 °F 57% 29.97 in 10.0 mi SSE 6.9 mph - N/A   Clear
6:15 PM 41.0 °F 35.2 °F 28.4 °F 61% 29.96 in 10.0 mi SSE 9.2 mph - N/A   Clear
6:35 PM 41.0 °F 35.2 °F 28.4 °F 61% 29.97 in 10.0 mi SSE 9.2 mph - N/A   Clear
6:55 PM 41.0 °F 35.2 °F 28.4 °F 61% 29.98 in 10.0 mi South 9.2 mph - N/A   Clear
7:15 PM 41.0 °F 35.8 °F 28.4 °F 61% 29.97 in 10.0 mi South 8.1 mph - N/A   Clear
7:16 PM 41.0 °F 35.8 °F 28.4 °F 61% 29.98 in 10.0 mi South 8.1 mph - N/A   Clear
7:35 PM 41.0 °F 35.8 °F 30.2 °F 65% 29.98 in 10.0 mi South 8.1 mph - N/A   Scattered Clouds
7:55 PM 41.0 °F 35.8 °F 30.2 °F 65% 29.97 in 10.0 mi South 8.1 mph - N/A   Mostly Cloudy
7:56 PM 41.0 °F 35.8 °F 30.2 °F 65% 29.97 in 10.0 mi South 8.1 mph - N/A   Mostly Cloudy
8:15 PM 41.0 °F 36.4 °F 30.2 °F 65% 29.97 in 10.0 mi South 6.9 mph - N/A   Overcast
8:16 PM 41.0 °F 36.4 °F 30.2 °F 65% 29.97 in 10.0 mi South 6.9 mph - N/A   Overcast
8:35 PM 41.0 °F 35.8 °F 30.2 °F 65% 29.98 in 10.0 mi South 8.1 mph - N/A   Overcast
8:36 PM 41.0 °F 36.4 °F 30.2 °F 65% 29.98 in 10.0 mi South 6.9 mph - N/A   Overcast
8:55 PM 39.2 °F 35.0 °F 30.2 °F 70% 29.97 in 10.0 mi South 5.8 mph - N/A   Overcast
9:15 PM 39.2 °F 34.2 °F 30.2 °F 70% 29.97 in 10.0 mi South 6.9 mph - N/A   Mostly Cloudy
9:16 PM 39.2 °F 34.2 °F 30.2 °F 70% 29.97 in 10.0 mi South 6.9 mph - N/A   Mostly Cloudy
9:35 PM 39.2 °F 33.0 °F 30.2 °F 70% 29.96 in 10.0 mi South 9.2 mph - N/A   Mostly Cloudy
9:36 PM 39.2 °F 33.0 °F 30.2 °F 70% 29.96 in 10.0 mi South 9.2 mph - N/A   Mostly Cloudy
9:55 PM 41.0 °F 34.7 °F 30.2 °F 65% 29.96 in 10.0 mi South 10.4 mph - N/A   Mostly Cloudy
10:15 PM 41.0 °F 34.7 °F 30.2 °F 65% 29.95 in 10.0 mi South 10.4 mph - N/A   Overcast
10:16 PM 41.0 °F 34.7 °F 30.2 °F 65% 29.95 in 10.0 mi South 10.4 mph - N/A   Overcast
10:35 PM 41.0 °F 34.7 °F 30.2 °F 65% 29.95 in 10.0 mi South 10.4 mph - N/A   Overcast
10:36 PM 41.0 °F 34.7 °F 30.2 °F 65% 29.95 in 10.0 mi South 10.4 mph - N/A   Overcast
10:55 PM 39.2 °F 34.2 °F 30.2 °F 70% 29.96 in 10.0 mi South 6.9 mph - N/A   Overcast
11:15 PM 39.2 °F 34.2 °F 30.2 °F 70% 29.95 in 10.0 mi SW 6.9 mph - N/A   Overcast
11:16 PM 39.2 °F 34.2 °F 30.2 °F 70% 29.96 in 10.0 mi SW 6.9 mph - N/A   Overcast
11:35 PM 37.4 °F 33.8 °F 32.0 °F 81% 29.96 in 7.0 mi SW 4.6 mph - N/A Rain Light Rain
11:55 PM 37.4 °F 33.8 °F 32.0 °F 81% 29.96 in 5.0 mi SW 4.6 mph - 0.01 in Rain Light Rain